星链-34408 (STARLINK-34408)

导读 | 豆包AI

STARLINK-34408是美国于北京时间2025年6月13日发射的一颗星链系列卫星,隶属于SpaceX公司主导的星链卫星互联网星座项目。星链计划旨在通过部署数千近地轨道卫星,为全球提供高速卫星互联网服务,STARLINK-34408的发射,是该星座组网进程中的组成部分,将进一步扩充星链星座的覆盖与服务能力。

基本信息
目录编号:
64363
目录名称:
STARLINK-34408
国际标识:
2025-126V
轨道中心:
EARTH
卫星名称:
星链-34408
卫星全名:
星链-34408 (STARLINK-34408)
卫星状态:
在轨 (已飞行320 天)
发射日期:
2025-06-13 UTC
国别 :
美国 (US)
星等 :
--
轨道信息
数据来源 国际轨道数据 AOE轨道数据
星历时间 2026-04-29T11:27:15+0800
11小时前
查看轨道信息
2026-04-24T16:00:00+0800
5天前
查看轨道信息
半长轴 6950.166km 6950.188km
偏心率 0.0002759 0.0003037
轨道倾角 70.001° 69.999°
近地点辐角 266.116° 275.389°
升交点赤经 267.069° 279.200°
平近点角 93.968° 63.841°
近地点 570.111km 569.94km
远地点 573.947km 574.162km
周期 96.106分钟 96.107分钟
每日圈数 14.98339 14.983319
详细信息
固有亮度:
5
最大亮度:
2.5
卫星平台:
Starlink V1.0
覆盖范围:
全球
运营商:
太空探索技术公司
运营商所在国:
美国
制造商(研发单位):
太空探索技术公司
制造商所在国:
美国
使用方式:
暂无
卫星简介
Starlink 计划是 SpaceX 推出的全球卫星互联网项目,通过发射低轨道卫星,为全球尤其是偏远地区提供高速、低延迟的互联网服务。自 2019 年起,Starlink 已部署数千颗卫星,旨在缩小全球数字鸿沟,推动互联网普及。该项目还为军事、航空等行业提供通信支持,带来广泛经济效益。
2D轨道图
3D轨道图
轨道高度分析图
轨道倾角分析图
轨道综合分析图
查看轨道综合分析图